• Join FlightAware (Why Join?)
  • Login
  • US Flag GB Flag 
13:43 EST


 

Airport Tracker/Info


-or-


 

Live Flight TrackerFlight Track Log ✈ JIA2328 ✈ 29-Jun-2013 ✈ KPHL - KALB

Flight Track Log - Related Links

Times and Time Zones

All times are in EDT time to prevent confusion due to time zone crossing. See the JIA2328 flight status page for this flight to view local times or setup timezone preferences in your user account.

Time Position Orientation Groundspeed Altitude Reporting Facility
EDT Latitude Longitude Course Direction KTS MPH feet Rate Location/Type
07:45 39.8667 -75.2667 37° Northeast 153 176 800  Level Philadelphia TRACON
07:46 39.8333 -75.3333 237° Southwest 196 226 3,200 2,160 Climbing Philadelphia TRACON
07:47 39.8333 -74.9908 90° East  Level FlightAware Approximate
07:47 39.7667 -75.3500 191° South 245 282 5,400  Level Philadelphia TRACON
07:48 39.8167 -74.8705 90° East  Level FlightAware Approximate
07:48 39.7333 -75.2667 117° Southeast 315 362 7,500  Level Philadelphia TRACON
07:49 39.7929 -74.7478 105° East  Level FlightAware Approximate
07:49 39.7500 -75.1500 79° East 320 368 10,000  Level Philadelphia TRACON
07:50 39.8305 -74.6529 37° Northeast  Level FlightAware Approximate
07:51 39.7744 -74.9006 83° East 355 409 12,000  Level New York Center
07:52 39.7892 -74.7744 81° East 374 430 13,400 2,040 Climbing New York Center
07:53 39.8450 -74.6642 57° Northeast 361 415 16,100 2,160 Climbing New York Center
07:54 39.9311 -74.5825 36° Northeast 361 415 17,800 1,860 Climbing New York Center
07:55 40.0236 -74.4925 37° Northeast 366 421 19,900 1,560 Climbing New York Center
07:56 40.1075 -74.4103 37° Northeast 391 450 21,000 1,200 Climbing New York Center
07:57 40.1978 -74.3200 37° Northeast 402 463 22,400 960 Climbing New York Center
07:59 40.3850 -74.1292 38° Northeast 413 475 24,000 480 Climbing Boston Center
08:00 40.4947 -74.0447 30° Northeast 440 506 24,000  Level Boston Center
08:01 40.6311 -73.9714 22° Northeast 456 525 24,000  Level Boston Center
08:02 40.7489 -73.8975 25° Northeast 461 531 24,000  Level Boston Center
08:03 40.8522 -73.7928 37° Northeast 461 531 24,000 -180 Level Boston Center
08:04 40.9303 -73.6956 43° Northeast 461 531 23,700 -480 Descending Boston Center
08:05 41.0486 -73.5519 42° Northeast 472 543 23,100 -480 Descending Boston Center
08:06 41.1478 -73.4381 41° Northeast 472 543 22,800 -960 Descending Boston Center
08:07 41.2750 -73.4206 North 442 509 21,200 -1,500 Descending Boston Center
08:08 41.3997 -73.4364 355° North 432 497 19,900 -1,080 Descending Boston Center
08:09 41.5081 -73.4631 350° North 424 488 19,100 -1,200 Descending Boston Center
08:10 41.6031 -73.5311 332° Northwest 385 443 17,600 -1,200 Descending Boston Center
08:11 41.6964 -73.5939 333° Northwest 379 436 16,700 -1,200 Descending Boston Center
08:12 41.7872 -73.6597 332° Northwest 374 430 15,300 -1,620 Descending Boston Center
08:13 41.8847 -73.7172 336° Northwest 374 430 13,500 -1,980 Descending Boston Center
08:14 41.9492 -73.7214 357° North 405 466 12,200 -1,380 Descending Boston Center
08:15 42.0803 -73.7381 355° North 371 427 11,000 -540 Descending Boston Center
08:16 42.1783 -73.7456 357° North 357 411 11,000 -540 Level Boston Center
08:17 42.2844 -73.7592 355° North 321 369 9,900 -1,380 Descending Boston Center
08:18 42.3681 -73.7356 12° North 305 351 8,100 -1,680 Descending Boston Center
08:19 42.4497 -73.7006 18° North 303 349 6,500 -1,440 Descending Boston Center
08:20 42.5272 -73.6683 17° North 292 336 5,300 -1,200 Descending Boston Center
08:21 42.6003 -73.6614 North 258 297 4,200 -660 Descending Boston Center
08:22 42.6689 -73.6656 357° North 237 273 4,000 -240 Descending Boston Center
08:22 42.6689 -73.6656 357° North 250 288 4,000  Level Boston Center
08:23 42.7333 -73.6697 357° North 240 276 4,000  Level Boston Center
08:24 42.7981 -73.6739 357° North 233 268 4,000  Level Boston Center
08:25 42.8542 -73.6778 357° North 233 268 4,000 -360 Level Boston Center
08:26 42.9167 -73.6961 348° North 219 252 3,400 -900 Descending Boston Center
08:27 42.9261 -73.7672 280° West 184 212 2,300 -720 Descending Boston Center
08:28 42.8842 -73.8058 214° Southwest 177 204 2,000 -300 Descending Boston Center
08:29 42.8381 -73.8133 187° South 173 199 1,800 -540 Descending Boston Center
08:30 42.7922 -73.8094 176° South 144 166 1,000 -840 Descending Boston Center